Home > Weather > Alexandria > Past weeks

Flag for USA Past Weather in Alexandria, Virginia, USA — Yesterday and Last 2 Weeks

Now
75 °F

Thunderstorms. Fog.


Feels Like: 74 °F
Forecast: 74 / 90 °F
Wind: 6 mph from West

Location: Reagan National Airport

Current Time: Jul 30, 2016 at 9:49:09 PM

Latest Report: Jul 30, 2016 at 8:52 PM


Visibility: 6 mi

Pressure: 29.98 "Hg

Humidity: 88%

Dew Point: 71 °F

Location of AlexandriaLocation

Past Weather in Alexandria — Graph

°F

Alexandria Temperature Yesterday

Maximum temperature yesterday: 90 °F (at 4:52 PM)
Minimum temperature yesterday: 75 °F (at 4:59 AM)
Average temperature yesterday: 82 °F

High & Low Weather Summary for the Past Weeks

 TemperatureHumidityPressure
High99 °F (Jul 25, 3:52 PM)94% (Jul 28, 11:52 PM)30.22 "Hg (Jul 28, 11:52 PM)
Low70 °F (Jul 19, 11:52 PM)33% (Jul 27, 12:52 PM)29.79 "Hg (Jul 29, 2:52 AM)
Average84 °F66%30.00 "Hg
* Reported Jul 15 7:52 PM — Jul 30 7:52 PM, Alexandria, Weather by CustomWeather, © 2016

Note: Actual official high and low records may vary slightly from our data, if they occured in-between our weather recording intervals... More about our weather records

Advertising

Alexandria Weather History for the Previous 24 Hours

Scroll right to see more
 ConditionsComfort  
Time TempWeatherWind HumidityBarometerVisibility
7:52 PM
Sat, Jul 30
80 °FThunderstorms. Fog.9 mph87%29.95 "Hg4 mi
6:52 PM83 °FCloudy.16 mph74%29.93 "Hg10 mi
5:52 PM84 °FMore clouds than sun.20 mph70%29.92 "Hg10 mi
4:52 PM87 °FBroken clouds.15 mph65%29.90 "Hg10 mi
3:52 PM87 °FBroken clouds.16 mph63%29.91 "Hg10 mi
2:52 PM88 °FScattered clouds.14 mph61%29.93 "Hg10 mi
1:52 PM88 °FBroken clouds.14 mph63%29.96 "Hg10 mi
1:03 PM82 °FLight rain. Broken clouds.7 mph79%29.97 "Hg10 mi
12:56 PM83 °FLight rain. Cloudy.15 mph72%29.98 "Hg4 mi
11:52 AM87 °FBroken clouds.13 mph61%29.98 "Hg10 mi
10:52 AM85 °FPartly sunny.9 mph70%29.99 "Hg10 mi
9:52 AM82 °FBroken clouds.8 mph74%29.98 "Hg10 mi
8:52 AM81 °FPartly sunny.8 mph79%29.98 "Hg10 mi
7:52 AM79 °FCloudy.7 mph84%29.98 "Hg10 mi
6:52 AM79 °FPassing clouds.5 mph84%29.97 "Hg10 mi
5:52 AM78 °FPassing clouds.5 mph87%29.94 "Hg10 mi
4:52 AM78 °FPartly cloudy.No wind87%29.93 "Hg10 mi
3:52 AM79 °FPassing clouds.No wind84%29.92 "Hg10 mi
2:52 AM79 °FPassing clouds.5 mph84%29.93 "Hg10 mi
1:52 AM79 °FClear.6 mph84%29.94 "Hg10 mi
12:52 AM81 °FClear.3 mph77%29.94 "Hg10 mi
11:52 PM
Fri, Jul 29
81 °FClear.7 mph72%29.94 "Hg10 mi
10:52 PM82 °FClear.7 mph72%29.93 "Hg10 mi
9:52 PM83 °FClear.6 mph70%29.92 "Hg10 mi
Weather by CustomWeather, © 2016

See weather overviewHow to use our weather pages